When you browse on this site, cookies collect data to enhance your experience and personalize the content and advertising you see.
Visit our Privacy Policy to learn more. By continuing to use the site, you agree to this use of cookies and data.
  • In Romania
  • List of Countries
  • For 7 days
  • Water Temperature
  • Satellite Maps
  • Weather Map
  • Weather Widgets
  • user-avatar
    Login

    Hourly Weather Rustawi

    Today, 24 May, Friday

    Time Temperature Precipitation Wind Pressure Humidity
    00:00 +16°C° 0 mm 2 mps 725 mmHg 77%
    01:00 +16°C° 0 mm 2 mps 725 mmHg 77%
    02:00 +15°C° 0 mm 2 mps 725 mmHg 76%
    03:00 +16°C° 0 mm 2 mps 724 mmHg 74%
    04:00 +16°C° 0 mm 2 mps 724 mmHg 74%
    05:00 +16°C° 0 mm 2 mps 725 mmHg 74%
    06:00 +18°C° 0 mm 1 mps 725 mmHg 73%
    07:00 +19°C° 0 mm 2 mps 724 mmHg 67%
    08:00 +21°C° 0 mm 2 mps 724 mmHg 61%
    09:00 +24°C° 0 mm 2 mps 724 mmHg 54%
    10:00 +25°C° 0 mm 2 mps 724 mmHg 51%
    11:00 +27°C° 0 mm 2 mps 724 mmHg 49%
    12:00 +28°C° 0 mm 2 mps 724 mmHg 47%
    13:00 +28°C° 0 mm 2 mps 723 mmHg 47%
    14:00 +29°C° 0 mm 2 mps 723 mmHg 47%
    15:00 +29°C° 0 mm 2 mps 723 mmHg 47%
    16:00 +28°C° 0 mm 2 mps 723 mmHg 51%
    17:00 +28°C° 0 mm 2 mps 724 mmHg 54%
    18:00 +27°C° 0 mm 1 mps 724 mmHg 58%
    19:00 +25°C° 0.2 mm 1 mps 724 mmHg 64%
    20:00 +23°C° 0.2 mm 1 mps 725 mmHg 69%
    21:00 +22°C° 0.2 mm 1 mps 725 mmHg 75%
    22:00 +21°C° 0.2 mm 1 mps 725 mmHg 76%
    23:00 +20°C° 0.2 mm 1 mps 725 mmHg 77%

    Tomorrow, 25 May, Saturday

    Time Temperature Precipitation Wind Pressure Humidity
    00:00 +20°C° 0.2 mm 1 mps 726 mmHg 78%
    01:00 +19°C° 0.1 mm 1 mps 726 mmHg 79%
    02:00 +19°C° 0.1 mm 1 mps 726 mmHg 79%
    03:00 +19°C° 0.1 mm 1 mps 726 mmHg 80%
    04:00 +19°C° 0 mm 1 mps 726 mmHg 78%
    05:00 +19°C° 0 mm 1 mps 725 mmHg 76%
    06:00 +18°C° 0 mm 0 mps 725 mmHg 74%
    07:00 +21°C° 0 mm 1 mps 725 mmHg 70%
    08:00 +23°C° 0 mm 1 mps 725 mmHg 65%
    09:00 +24°C° 0 mm 1 mps 724 mmHg 61%
    10:00 +25°C° 0 mm 2 mps 724 mmHg 58%
    11:00 +27°C° 0 mm 2 mps 724 mmHg 55%
    12:00 +28°C° 0 mm 3 mps 723 mmHg 51%
    13:00 +28°C° 0.3 mm 3 mps 723 mmHg 54%
    14:00 +28°C° 0.3 mm 3 mps 723 mmHg 56%
    15:00 +28°C° 0.3 mm 4 mps 723 mmHg 58%
    16:00 +27°C° 0.3 mm 3 mps 723 mmHg 59%
    17:00 +27°C° 0.3 mm 2 mps 723 mmHg 59%
    18:00 +26°C° 0.3 mm 2 mps 722 mmHg 59%
    19:00 +24°C° 1 mm 2 mps 723 mmHg 67%
    20:00 +21°C° 1 mm 3 mps 723 mmHg 75%
    21:00 +19°C° 1 mm 3 mps 724 mmHg 83%
    22:00 +19°C° 0.5 mm 3 mps 724 mmHg 84%
    23:00 +18°C° 0.5 mm 3 mps 725 mmHg 86%

    Day after tomorrow, 26 May, Sunday

    Time Temperature Precipitation Wind Pressure Humidity
    00:00 +18°C° 0.5 mm 2 mps 725 mmHg 87%
    01:00 +17°C° 0 mm 2 mps 725 mmHg 87%
    02:00 +17°C° 0 mm 2 mps 725 mmHg 86%
    03:00 +17°C° 0 mm 2 mps 725 mmHg 86%
    04:00 +17°C° 0 mm 2 mps 725 mmHg 84%
    05:00 +18°C° 0 mm 2 mps 725 mmHg 82%
    06:00 +18°C° 0 mm 2 mps 725 mmHg 81%
    07:00 +20°C° 0 mm 2 mps 724 mmHg 73%
    08:00 +23°C° 0 mm 2 mps 724 mmHg 65%
    09:00 +25°C° 0 mm 2 mps 724 mmHg 57%
    10:00 +27°C° 0 mm 2 mps 724 mmHg 52%
    11:00 +28°C° 0 mm 2 mps 724 mmHg 48%
    12:00 +30°C° 0 mm 1 mps 724 mmHg 43%
    13:00 +30°C° 0.1 mm 2 mps 724 mmHg 40%
    14:00 +31°C° 0.1 mm 2 mps 723 mmHg 38%
    15:00 +31°C° 0.1 mm 2 mps 723 mmHg 35%
    16:00 +30°C° 0.1 mm 2 mps 723 mmHg 40%
    17:00 +29°C° 0.1 mm 3 mps 723 mmHg 45%
    18:00 +27°C° 0.1 mm 4 mps 724 mmHg 50%
    19:00 +25°C° 0 mm 3 mps 724 mmHg 56%
    20:00 +22°C° 0 mm 3 mps 725 mmHg 62%
    21:00 +20°C° 0 mm 3 mps 726 mmHg 68%
    22:00 +19°C° 0 mm 2 mps 726 mmHg 71%
    23:00 +19°C° 0 mm 2 mps 726 mmHg 75%

    27 May, Monday

    Time Temperature Precipitation Wind Pressure Humidity
    00:00 +18°C° 0 mm 2 mps 727 mmHg 78%
    01:00 +17°C° 0 mm 2 mps 727 mmHg 81%
    02:00 +17°C° 0 mm 2 mps 726 mmHg 83%
    03:00 +16°C° 0 mm 3 mps 726 mmHg 86%
    04:00 +16°C° 0 mm 3 mps 727 mmHg 83%
    05:00 +17°C° 0 mm 3 mps 727 mmHg 81%
    06:00 +17°C° 0 mm 3 mps 727 mmHg 78%
    07:00 +19°C° 0 mm 3 mps 727 mmHg 69%
    08:00 +21°C° 0 mm 3 mps 727 mmHg 60%
    09:00 +23°C° 0 mm 4 mps 728 mmHg 51%
    10:00 +26°C° 0 mm 4 mps 727 mmHg 45%
    11:00 +27°C° 0 mm 3 mps 727 mmHg 40%
    12:00 +28°C° 0 mm 3 mps 727 mmHg 35%
    13:00 +29°C° 0 mm 3 mps 727 mmHg 34%
    14:00 +29°C° 0 mm 3 mps 727 mmHg 32%
    15:00 +30°C° 0 mm 3 mps 727 mmHg 31%
    16:00 +29°C° 0 mm 3 mps 727 mmHg 35%
    17:00 +28°C° 0 mm 3 mps 728 mmHg 39%
    18:00 +27°C° 0 mm 3 mps 728 mmHg 43%
    19:00 +25°C° 0 mm 3 mps 728 mmHg 47%
    20:00 +23°C° 0 mm 2 mps 729 mmHg 51%
    21:00 +20°C° 0 mm 2 mps 730 mmHg 55%
    22:00 +19°C° 0 mm 2 mps 730 mmHg 57%
    23:00 +18°C° 0 mm 2 mps 730 mmHg 59%

    28 May, Tuesday

    Time Temperature Precipitation Wind Pressure Humidity
    00:00 +17°C° 0 mm 2 mps 730 mmHg 61%
    01:00 +17°C° 0 mm 2 mps 730 mmHg 58%
    02:00 +16°C° 0 mm 1 mps 730 mmHg 56%
    03:00 +16°C° 0 mm 1 mps 730 mmHg 54%
    04:00 +16°C° 0 mm 1 mps 730 mmHg 55%
    05:00 +18°C° 0 mm 1 mps 730 mmHg 55%
    06:00 +19°C° 0 mm 1 mps 730 mmHg 56%
    07:00 +20°C° 0 mm 1 mps 730 mmHg 54%
    08:00 +22°C° 0 mm 1 mps 730 mmHg 53%
    09:00 +24°C° 0 mm 1 mps 730 mmHg 51%
    10:00 +25°C° 0 mm 1 mps 730 mmHg 49%
    11:00 +26°C° 0 mm 2 mps 730 mmHg 47%
    12:00 +27°C° 0 mm 2 mps 729 mmHg 45%
    13:00 +28°C° 0.1 mm 2 mps 729 mmHg 43%
    14:00 +29°C° 0.1 mm 2 mps 729 mmHg 41%
    15:00 +29°C° 0.1 mm 3 mps 729 mmHg 40%
    16:00 +29°C° 0 mm 2 mps 729 mmHg 43%
    17:00 +28°C° 0 mm 2 mps 729 mmHg 46%
    18:00 +27°C° 0 mm 2 mps 729 mmHg 49%
    19:00 +26°C° 0 mm 1 mps 730 mmHg 53%
    20:00 +24°C° 0 mm 1 mps 730 mmHg 57%
    21:00 +22°C° 0 mm 1 mps 731 mmHg 61%
    22:00 +22°C° 0 mm 1 mps 731 mmHg 63%
    23:00 +21°C° 0 mm 1 mps 731 mmHg 65%

    29 May, Wednesday

    Time Temperature Precipitation Wind Pressure Humidity
    00:00 +21°C° 0 mm 1 mps 731 mmHg 67%
    01:00 +20°C° 0 mm 1 mps 731 mmHg 68%
    02:00 +20°C° 0 mm 1 mps 730 mmHg 70%
    03:00 +19°C° 0 mm 1 mps 730 mmHg 72%
    04:00 +20°C° 0 mm 1 mps 730 mmHg 71%
    05:00 +20°C° 0 mm 1 mps 730 mmHg 71%
    06:00 +18°C° 0 mm 0 mps 730 mmHg 70%
    07:00 +22°C° 0 mm 1 mps 730 mmHg 66%
    08:00 +24°C° 0 mm 1 mps 730 mmHg 62%
    09:00 +25°C° 0 mm 1 mps 729 mmHg 58%
    10:00 +26°C° 0 mm 1 mps 729 mmHg 52%
    11:00 +28°C° 0 mm 2 mps 729 mmHg 47%
    12:00 +29°C° 0 mm 2 mps 728 mmHg 42%
    13:00 +30°C° 0 mm 2 mps 728 mmHg 40%
    14:00 +30°C° 0 mm 3 mps 728 mmHg 37%
    15:00 +31°C° 0 mm 3 mps 728 mmHg 35%
    16:00 +30°C° 0 mm 2 mps 728 mmHg 37%
    17:00 +30°C° 0 mm 2 mps 728 mmHg 39%
    18:00 +29°C° 0 mm 2 mps 728 mmHg 41%
    19:00 +27°C° 0 mm 2 mps 728 mmHg 47%
    20:00 +24°C° 0 mm 1 mps 729 mmHg 52%
    21:00 +22°C° 0 mm 1 mps 729 mmHg 58%
    22:00 +21°C° 0 mm 1 mps 729 mmHg 62%
    23:00 +21°C° 0 mm 1 mps 729 mmHg 65%
    Show more